Location: Marstown
(39.5056°N, 77.0820°W)
Time: 22:32:52
(UTC-04:00)

Envisat - Visible Passes

Search period start: 19 September 2018 00:00
Search period end: 29 September 2018 00:00
Orbit: 764 x 766 km, 98.2° (Epoch: 19 September)

Date Brightness Start Highest point End Pass type
(mag) Time Alt. Az. Time Alt. Az. Time Alt. Az.
19 Sep 2.9 20:05:15 10° SSE 20:10:19 80° ENE 20:15:25 10° N visible
19 Sep 6.0 21:48:45 10° WSW 21:49:54 11° W 21:51:03 10° WNW visible
20 Sep 3.6 19:29:09 10° SE 19:33:45 35° ENE 19:38:21 10° N visible
20 Sep 5.1 21:08:38 10° SSW 21:12:48 25° W 21:16:58 10° NW visible
21 Sep 3.6 20:30:54 10° S 20:35:53 58° W 20:40:54 10° NNW visible
22 Sep 3.0 19:54:10 10° SSE 19:59:10 63° ENE 20:04:12 10° N visible
22 Sep 5.8 21:35:57 10° WSW 21:38:35 14° W 21:41:15 10° WNW visible
23 Sep 4.7 20:57:02 10° SSW 21:01:32 32° W 21:06:05 10° NNW visible
24 Sep 3.2 20:19:38 10° S 20:24:42 74° WSW 20:29:47 10° NNW visible
25 Sep 3.2 19:43:10 10° SE 19:48:02 49° ENE 19:52:56 10° N visible
25 Sep 5.5 21:23:52 10° SW 21:27:18 18° W 21:30:46 10° NW visible
26 Sep 4.2 20:45:33 10° SSW 20:50:18 41° W 20:55:07 10° NNW visible
27 Sep 2.9 20:08:27 10° SSE 20:13:31 87° E 20:18:37 10° NNW visible
28 Sep 3.5 19:32:14 10° SE 19:36:55 39° ENE 19:41:37 10° N visible
28 Sep 5.2 21:12:02 10° SW 21:16:02 23° W 21:20:02 10° NW visible
